Tracking 29034 objects as of 24-Jun-2024
HD Live streaming from Space Station
objects crossing your sky now

IRS P6

Track IRS P6 now!
10-day predictions
IRS P6 is classified as:


NORAD ID: 28051
Int'l Code: 2003-046A
Perigee: 734.5 km
Apogee: 826.7 km
Inclination: 98.3 °
Period: 100.3 minutes
Semi major axis: 7151 km
RCS: 5.9386 m2 (large)
Launch date: October 17, 2003
Source: India (IND)
Launch site: SRIHARIKOTA (SRI)

Monitor agricultural, land, and water resources.
Your satellite tracking list
Your tracking list is empty




NASA's NSSDC Master Catalog

Two Line Element Set (TLE):
1 28051U 03046A   24176.84631535  .00000184  00000-0  76822-4 0  9996
2 28051  98.2933 233.8405 0064447 347.5149 135.4081 14.35489089 76898
Source of the keplerian elements: AFSPC